Location: Newark
(12.4436°N, 0.6167°W)
Time: 12:03:50
(UTC+00:00)

Vanguard 2 - Pass Details

Date: 15 December 2019
Orbit: 553 x 2938 km, 32.9° (Epoch: 25 January)

Event Time Altitude Azimuth Distance (km) Brightness Sun altitude
Rises 22:53:19 0° 258° (WSW) 4,299 - -71.3°
Reaches altitude 10° 22:55:53 10° 263° (W) 3,595 - -71.8°
Maximum altitude 23:05:26 53° 338° (NNW) 2,423 - -73.5°
Drops below altitude 10° 23:20:33 10° 51° (NE) 5,494 - -76.0°
Sets 23:25:34 0° 56° (NE) 6,686 - -76.7°
